When you browse on this site, cookies collect data to enhance your experience and personalize the content and advertising you see.
Visit our Privacy Policy to learn more. By continuing to use the site, you agree to this use of cookies and data.
  • In Hungary
  • List of Countries
  • For 7 days
  • Water Temperature
  • Satellite Maps
  • Weather Map
  • News
  • Weather Widgets
  • user-avatar
    Login

    Hourly Weather Muskogee

    Today, 20 July, Saturday

    Time Temperature Precipitation Wind Pressure Humidity
    00:00 +27°C° 0 mm 4 mps 744 mmHg 80%
    01:00 +27°C° 0 mm 4 mps 744 mmHg 82%
    02:00 +27°C° 0 mm 3 mps 743 mmHg 83%
    03:00 +27°C° 0 mm 3 mps 743 mmHg 85%
    04:00 +27°C° 0 mm 3 mps 743 mmHg 85%
    05:00 +26°C° 0 mm 3 mps 744 mmHg 86%
    06:00 +26°C° 0 mm 3 mps 744 mmHg 83%
    07:00 +28°C° 0 mm 4 mps 744 mmHg 78%
    08:00 +30°C° 0 mm 5 mps 744 mmHg 74%
    09:00 +32°C° 0 mm 5 mps 744 mmHg 69%
    10:00 +34°C° 0 mm 5 mps 744 mmHg 64%
    11:00 +36°C° 0 mm 5 mps 744 mmHg 58%
    12:00 +37°C° 0 mm 5 mps 744 mmHg 53%
    13:00 +39°C° 0 mm 5 mps 744 mmHg 50%
    14:00 +39°C° 0 mm 5 mps 743 mmHg 48%
    15:00 +38°C° 0 mm 4 mps 743 mmHg 46%
    16:00 +38°C° 0 mm 4 mps 742 mmHg 50%
    17:00 +37°C° 0 mm 4 mps 742 mmHg 54%
    18:00 +36°C° 0 mm 3 mps 742 mmHg 59%
    19:00 +34°C° 0 mm 3 mps 742 mmHg 63%
    20:00 +33°C° 0 mm 3 mps 743 mmHg 68%
    21:00 +30°C° 0 mm 3 mps 743 mmHg 73%
    22:00 +29°C° 0 mm 3 mps 743 mmHg 76%
    23:00 +28°C° 0 mm 3 mps 743 mmHg 79%

    Tomorrow, 21 July, Sunday

    Time Temperature Precipitation Wind Pressure Humidity
    00:00 +28°C° 0 mm 3 mps 743 mmHg 82%
    01:00 +27°C° 0 mm 3 mps 743 mmHg 82%
    02:00 +26°C° 0 mm 3 mps 743 mmHg 82%
    03:00 +26°C° 0 mm 2 mps 743 mmHg 83%
    04:00 +26°C° 0 mm 3 mps 744 mmHg 83%
    05:00 +26°C° 0 mm 3 mps 744 mmHg 84%
    06:00 +26°C° 0 mm 3 mps 744 mmHg 84%
    07:00 +27°C° 0 mm 4 mps 744 mmHg 77%
    08:00 +29°C° 0 mm 4 mps 744 mmHg 71%
    09:00 +32°C° 0 mm 5 mps 744 mmHg 64%
    10:00 +34°C° 0 mm 5 mps 744 mmHg 58%
    11:00 +35°C° 0 mm 5 mps 744 mmHg 53%
    12:00 +37°C° 0 mm 5 mps 744 mmHg 48%
    13:00 +39°C° 0 mm 5 mps 744 mmHg 46%
    14:00 +39°C° 0 mm 5 mps 744 mmHg 44%
    15:00 +40°C° 0 mm 5 mps 744 mmHg 42%
    16:00 +38°C° 0 mm 4 mps 743 mmHg 47%
    17:00 +37°C° 0 mm 4 mps 743 mmHg 51%
    18:00 +36°C° 0 mm 3 mps 743 mmHg 55%
    19:00 +34°C° 0 mm 3 mps 743 mmHg 58%
    20:00 +33°C° 0 mm 4 mps 743 mmHg 62%
    21:00 +30°C° 0 mm 4 mps 743 mmHg 65%
    22:00 +29°C° 0 mm 4 mps 743 mmHg 66%
    23:00 +29°C° 0 mm 3 mps 743 mmHg 68%

    Day after tomorrow, 22 July, Monday

    Time Temperature Precipitation Wind Pressure Humidity
    00:00 +28°C° 0 mm 3 mps 743 mmHg 69%
    01:00 +27°C° 0.3 mm 3 mps 743 mmHg 72%
    02:00 +26°C° 0.3 mm 3 mps 744 mmHg 75%
    03:00 +26°C° 0.3 mm 2 mps 744 mmHg 78%
    04:00 +25°C° 0.5 mm 2 mps 744 mmHg 83%
    05:00 +25°C° 0.5 mm 2 mps 745 mmHg 89%
    06:00 +25°C° 0.5 mm 3 mps 745 mmHg 95%
    07:00 +25°C° 0 mm 4 mps 745 mmHg 92%
    08:00 +25°C° 0 mm 5 mps 746 mmHg 89%
    09:00 +24°C° 0 mm 6 mps 746 mmHg 85%
    10:00 +24°C° 0 mm 6 mps 746 mmHg 83%
    11:00 +26°C° 0 mm 6 mps 747 mmHg 80%
    12:00 +26°C° 0 mm 6 mps 747 mmHg 78%
    13:00 +27°C° 0 mm 6 mps 747 mmHg 73%
    14:00 +28°C° 0 mm 6 mps 747 mmHg 69%
    15:00 +29°C° 0 mm 6 mps 747 mmHg 64%
    16:00 +29°C° 0 mm 6 mps 747 mmHg 65%
    17:00 +29°C° 0 mm 6 mps 747 mmHg 66%
    18:00 +28°C° 0 mm 5 mps 747 mmHg 67%
    19:00 +27°C° 0 mm 5 mps 747 mmHg 70%
    20:00 +25°C° 0 mm 4 mps 747 mmHg 74%
    21:00 +24°C° 0 mm 3 mps 748 mmHg 77%
    22:00 +22°C° 0 mm 3 mps 748 mmHg 80%
    23:00 +22°C° 0 mm 3 mps 748 mmHg 83%

    23 July, Tuesday

    Time Temperature Precipitation Wind Pressure Humidity
    00:00 +21°C° 0 mm 3 mps 748 mmHg 86%
    01:00 +21°C° 0 mm 3 mps 748 mmHg 88%
    02:00 +20°C° 0 mm 3 mps 749 mmHg 89%
    03:00 +20°C° 0 mm 3 mps 749 mmHg 91%
    04:00 +20°C° 0 mm 3 mps 749 mmHg 91%
    05:00 +20°C° 0 mm 3 mps 749 mmHg 92%
    06:00 +19°C° 0 mm 3 mps 750 mmHg 92%
    07:00 +21°C° 0 mm 4 mps 750 mmHg 85%
    08:00 +23°C° 0 mm 4 mps 750 mmHg 78%
    09:00 +26°C° 0 mm 4 mps 751 mmHg 71%
    10:00 +27°C° 0 mm 4 mps 750 mmHg 66%
    11:00 +28°C° 0 mm 4 mps 750 mmHg 60%
    12:00 +29°C° 0 mm 4 mps 750 mmHg 55%
    13:00 +30°C° 0 mm 4 mps 750 mmHg 54%
    14:00 +30°C° 0 mm 5 mps 749 mmHg 52%
    15:00 +30°C° 0 mm 5 mps 749 mmHg 51%
    16:00 +30°C° 0 mm 4 mps 749 mmHg 54%
    17:00 +29°C° 0 mm 4 mps 748 mmHg 56%
    18:00 +28°C° 0 mm 4 mps 748 mmHg 58%
    19:00 +26°C° 0 mm 4 mps 749 mmHg 63%
    20:00 +25°C° 0 mm 3 mps 749 mmHg 67%
    21:00 +22°C° 0 mm 3 mps 750 mmHg 71%
    22:00 +21°C° 0 mm 3 mps 750 mmHg 73%
    23:00 +20°C° 0 mm 3 mps 750 mmHg 76%

    24 July, Wednesday

    Time Temperature Precipitation Wind Pressure Humidity
    00:00 +20°C° 0 mm 2 mps 750 mmHg 79%
    01:00 +19°C° 0 mm 2 mps 750 mmHg 82%
    02:00 +18°C° 0 mm 2 mps 750 mmHg 86%
    03:00 +19°C° 0 mm 1 mps 750 mmHg 89%
    04:00 +19°C° 0 mm 1 mps 750 mmHg 89%
    05:00 +19°C° 0 mm 1 mps 750 mmHg 89%
    06:00 +19°C° 0 mm 1 mps 750 mmHg 89%
    07:00 +21°C° 0 mm 1 mps 750 mmHg 79%
    08:00 +24°C° 0 mm 1 mps 751 mmHg 70%
    09:00 +26°C° 0 mm 1 mps 751 mmHg 60%
    10:00 +28°C° 0 mm 1 mps 751 mmHg 54%
    11:00 +28°C° 0 mm 0 mps 750 mmHg 48%
    12:00 +30°C° 0 mm 0 mps 750 mmHg 42%
    13:00 +30°C° 0 mm 0 mps 749 mmHg 40%
    14:00 +32°C° 0 mm 1 mps 749 mmHg 39%
    15:00 +32°C° 0 mm 1 mps 748 mmHg 37%
    16:00 +31°C° 0 mm 1 mps 748 mmHg 43%
    17:00 +30°C° 0 mm 1 mps 747 mmHg 48%
    18:00 +30°C° 0 mm 1 mps 747 mmHg 54%
    19:00 +28°C° 0 mm 1 mps 747 mmHg 58%
    20:00 +25°C° 0 mm 1 mps 747 mmHg 63%
    21:00 +23°C° 0 mm 1 mps 747 mmHg 68%
    22:00 +23°C° 0 mm 1 mps 748 mmHg 70%
    23:00 +22°C° 0 mm 1 mps 748 mmHg 71%

    25 July, Thursday

    Time Temperature Precipitation Wind Pressure Humidity
    00:00 +22°C° 0 mm 1 mps 748 mmHg 73%
    01:00 +21°C° 0 mm 1 mps 748 mmHg 74%
    02:00 +20°C° 0 mm 2 mps 748 mmHg 76%
    03:00 +19°C° 0 mm 2 mps 748 mmHg 78%
    04:00 +19°C° 0 mm 2 mps 748 mmHg 79%
    05:00 +19°C° 0 mm 2 mps 748 mmHg 81%
    06:00 +18°C° 0 mm 2 mps 748 mmHg 83%
    07:00 +21°C° 0 mm 2 mps 749 mmHg 76%
    08:00 +24°C° 0 mm 2 mps 749 mmHg 69%
    09:00 +26°C° 0 mm 3 mps 749 mmHg 63%
    10:00 +28°C° 0 mm 3 mps 749 mmHg 57%
    11:00 +29°C° 0 mm 3 mps 749 mmHg 52%
    12:00 +31°C° 0 mm 3 mps 749 mmHg 47%
    13:00 +31°C° 0 mm 3 mps 748 mmHg 44%
    14:00 +31°C° 0 mm 3 mps 748 mmHg 42%
    15:00 +33°C° 0 mm 3 mps 747 mmHg 40%
    16:00 +31°C° 0 mm 3 mps 747 mmHg 44%
    17:00 +30°C° 0 mm 2 mps 747 mmHg 48%
    18:00 +30°C° 0 mm 2 mps 746 mmHg 52%
    19:00 +28°C° 0 mm 2 mps 747 mmHg 55%
    20:00 +26°C° 0 mm 2 mps 747 mmHg 59%
    21:00 +24°C° 0 mm 2 mps 747 mmHg 62%
    22:00 +22°C° 0 mm 3 mps 747 mmHg 65%
    23:00 +21°C° 0 mm 3 mps 747 mmHg 67%
    Show more